Simultaneous Nadir Overpasses (SNOs) Predictions

Prediction of SNOs between NOAA-19 and TERRA Satellite Orbit:

Table of predicted SNOs for the next 14.0 days since TLE Epoch: 11/15/2014
Index Date (NOAA-19) Time (NOAA-19) Lat,Lon (NOAA-19) SZA (NOAA-19 ) Date (TERRA) Time (TERRA) Lat,Lon (TERRA) SZA (TERRA ) Distance(km) Time Diff (sec)
1 11/16/2014 04:34:36 -71.14, -66.29 90.16 11/16/2014 04:34:52 -71.14, -66.31 90.16 0.77 16
2 11/16/2014 05:25:33 70.95, 101.31 89.67 11/16/2014 05:24:20 71.00, 101.11 89.71 9.21 73
3 11/18/2014 09:18:17 -71.19,-137.25 89.58 11/18/2014 09:19:16 -71.20,-137.33 89.57 3.08 59
4 11/18/2014 10:09:16 71.12, 30.11 90.37 11/18/2014 10:08:43 71.11, 30.18 90.35 2.89 33
5 11/20/2014 14:52:56 71.15, -40.82 90.90 11/20/2014 14:53:10 71.14, -40.88 90.89 2.48 14
6 11/20/2014 15:43:55 -70.92, 126.83 89.32 11/20/2014 15:42:41 -70.98, 126.50 89.27 14.18 74
7 11/22/2014 19:36:37 71.23,-111.85 91.46 11/22/2014 19:37:39 71.21,-111.90 91.44 2.64 62
8 11/22/2014 20:27:39 -71.13, 55.57 88.64 11/22/2014 20:27:09 -71.11, 55.58 88.66 1.27 30
9 11/25/2014 01:11:20 -71.19, -15.43 88.14 11/25/2014 01:11:41 -71.17, -15.47 88.16 2.34 21
10 11/25/2014 02:02:17 71.10, 151.98 91.79 11/25/2014 02:01:08 71.08, 152.04 91.76 2.85 69
11 11/27/2014 05:55:03 -71.36, -86.62 87.56 11/27/2014 05:56:14 -71.32, -86.38 87.59 9.82 71
12 11/27/2014 06:45:57 71.15, 81.02 92.24 11/27/2014 06:45:43 71.13, 80.95 92.22 3.30 14




NCC Satellite Simultaneous Nadir Overpasses (SNOs) Prediction Service
